Other Public Products
Issued by NWS Charleston, SC

Current Version | Previous Version | Text Only | Print | Product List | Glossary Off
Versions: 1 2 3 4 5 6 7 8 9 10 11 12 13 14 15 16 17 18 19 20 21 22 23 24 25 26 27 28 29 30 31 32 33 34 35 36 37 38 39 40 41 42 43 44 45 46 47 48 49 50
000 FPUS82 KCHS 182312 OPUCHS TEST...KCHS/KSAV Gateway Observations...TEST National Weather Service Charleston SC 700 PM EDT FRI AUG 18 2017 NOTE: "fair" indicates few or no clouds below 12,000 feet with no significant weather and/or obstructions to visibility. SCZ050-WAZ558-NCZ071-TXZ119-213-PAZ071-DCZ001-FLZ074-172-MI076- NYZ176-178-MAZ016-IL014-TNZ027-NJZ106-GAZ044-MD014-190000- ...Gateway Observations for Charleston International... CITY SKY/WX TMP DP RH WIND PRES REMARKS Chas Airport MOSUNNY 88 76 67 S13 29.92R HX 99 Seattle MOSUNNY 70 55 59 S12 30.16F Charlotte PTSUNNY 89 74 60 VRB6 29.90R HX 98 Dallas DFW CLOUDY 85 74 69 CALM 29.95F HX 92 Dallas Love CLOUDY 89 73 59 CALM 29.95F HX 97 Philladelphia TSTM 76 73 91 W10 29.81R Wash National CLOUDY 80 77 90 N10 29.79S Baltimore CLOUDY 77 77 100 S12G18 29.81R THUNDER Miami MOSUNNY 89 74 60 E13 29.97F HX 98 Detroit PTSUNNY 76 62 62 W15 29.83R Newark TSTM 81 77 88 E5 29.78F Laguardia CLOUDY 80 77 90 VRB6 29.79R THUNDER J F K CLOUDY 77 77 100 S18 29.81R Boston Logan CLOUDY 75 72 90 S14 29.82S Ft. Lauderdale MOSUNNY 87 76 69 E14 29.97F HX 97 Chicago O`Hare MOSUNNY 80 59 48 W14 29.84S Chicago Midway MOSUNNY 82 59 45 W14 29.84S Houston Bush MOSUNNY 92 75 57 SE14 29.95F HX 103 Houston Hobby MOSUNNY 95 76 53 SE9 29.94F HX 108 Nashville MOSUNNY 86 62 44 W8 29.97S Atlanta MOSUNNY 87 67 51 W9 29.97S HX 90 $$ GAZ044-118-TXZ119-213-NCZ071-DCZ001-MDZ014-506-PAZ021-071-NJZ106- NYZ176-178-MAZ106-OHZ011-021-055-MIZ076-KYZ091-ILZ014-INZ047- MNZ060-ONZ431-190000- ...Gateway Observations for Savannah International... CITY SKY/WX TMP DP RH WIND PRES REMARKS Savannah Arpt SUNNY 92 77 61 S17 29.93R HX 105 Atlanta MOSUNNY 87 67 51 W9 29.97S HX 90 Charlotte PTSUNNY 89 74 60 VRB6 29.90R HX 98 Dallas DFW CLOUDY 85 74 69 CALM 29.95F HX 92 Houston Bush MOSUNNY 92 75 57 SE14 29.95F HX 103 Wash National CLOUDY 80 77 90 N10 29.79S Wash Dulles CLOUDY 77 77 100 E3 29.80R Baltimore CLOUDY 77 77 100 S12G18 29.81R THUNDER Philadelphia TSTM 76 73 91 W10 29.81R Newark TSTM 81 77 88 E5 29.78F Laguardia CLOUDY 80 77 90 VRB6 29.79R THUNDER J F K CLOUDY 77 77 100 S18 29.81R Boston CLOUDY 75 72 90 S14 29.82S Pittsburg MOSUNNY 81 62 52 W9 29.84S Akron MOSUNNY 80 61 52 W14G23 29.85R Cleveland PTSUNNY 81 63 54 W15 29.85R Cincinnati MOSUNNY 82 64 54 W12 29.91S Columbus SUNNY 80 64 57 W10 29.86S Detroit PTSUNNY 76 62 62 W15 29.83R Chicago O`Hare MOSUNNY 80 59 48 W14 29.84S Minneapolis CLOUDY 73 60 63 W7 29.89R Indianapolis MOSUNNY 83 61 47 W14 29.89S Toronto Canada PTSUNNY 75 63 64 W17 29.72R $$

USA.gov is the U.S. government's official web portal to all federal, state and local government web resources and services.